Terminal Aerodrome Forecast
Issued by NWS Aberdeen, SD

Home | Current Version | Previous Version | Text Only | Print | Product List | Glossary On
Versions: 1 2 3 4 5 6 7 8 9 10 11 12 13 14 15 16 17 18 19 20 21 22 23 24 25 26 27 28 29 30 31 32 33 34 35 36 37 38 39 40 41 42 43 44 45 46 47 48 49 50
000
FTAK31 PAFA 222330
TAFABR
TAF
PABR 222330Z 2300/2324 27011KT P6SM OVC009
     FM230300 27010KT P6SM -FZDZSN SCT010 OVC020
     FM231200 19004KT 4SM -SN BR OVC007
     FM231900 19004KT P6SM -RA OVC015=

USA.gov is the U.S. government's official web portal to all federal, state and local government web resources and services.